Location: Malanoce
(44.2500°N, 7.4667°E)
Time: 04:49:38
(UTC+00:00)

DNEPR-1 R/B - Pass Details

Date: 17 November 2025
Orbit: 587 x 1326 km, 64.6° (Epoch: 09 December)

Event Time Altitude Azimuth Distance (km) Brightness Sun altitude
Rises 16:31:12 0° 322° (NW) 2,894 7.2 -5.7°
Reaches altitude 10° 16:33:20 10° 319° (NW) 2,035 6.5 -6.1°
Maximum altitude 16:37:51 65° 238° (WSW) 771 4.4 -6.8°
Drops below altitude 10° 16:43:08 10° 157° (SSE) 2,373 6.5 -7.7°
Sets 16:45:48 0° 155° (SSE) 3,421 7.3 -8.2°
